This demonstration page uses our WeatherBlox Daily Observations layout. Learn more.

Left ArrowRight Arrow

36.17497, -115.13722

Hourly Observations for September 22, 2015

Temp ( °F °C ) Dew Point ( °F °C ) Humidity (%) Winds ( mph kmh ) Pressure ( in mb ) Visibility ( mi km ) Precip ( " mm )
12:53 am 00:53 Clear 80 26.7 60 15.6 51 51 E 8 13 29.75 1008 10 16 N/A
1:53 am 01:53 Clear 79 26.1 61 16.1 54 54 ENE 7 11 29.75 1008 10 16 N/A
2:53 am 02:53 Clear 78 25.6 61 16.1 56 56 NE 6 9 29.76 1008 10 16 N/A
3:53 am 03:53 Clear 77 25 60 15.6 56 56 E 10 17 29.77 1008 10 16 N/A
4:53 am 04:53 Clear 77 25 59 15 54 54 E 9 15 29.79 1009 10 16 N/A
5:53 am 05:53 Clear 77 25 59 15 54 54 E 8 13 29.82 1010 10 16 N/A
6:53 am 06:53 Sunny 77 25 58 14.4 52 52 ESE 8 13 29.84 1011 10 16 N/A
7:53 am 07:53 Sunny 78 25.6 59 15 52 52 ESE 9 15 29.87 1012 10 16 N/A
8:53 am 08:53 Sunny 79 26.1 60 15.6 52 52 SE 9 15 29.89 1012 10 16 N/A
9:53 am 09:53 Sunny 81 27.2 60 15.6 49 49 ESE 9 15 29.90 1013 10 16 N/A
10:53 am 10:53 Sunny 83 28.3 60 15.6 46 46 ESE 10 17 29.90 1013 10 16 N/A
11:53 am 11:53 Sunny 84 28.9 58 14.4 41 41 SE 3 6 29.89 1012 10 16 N/A
12:53 pm 12:53 Sunny 89 31.7 58 14.4 35 35 undefined N/A 29.86 1011 10 16 N/A
1:53 pm 13:53 Sunny 91 32.8 58 14.4 33 33 SSE 13 20 29.83 1010 10 16 N/A
2:53 pm 14:53 Sunny 92 33.3 56 13.3 30 30 SE 6 9 29.80 1009 10 16 N/A
3:53 pm 15:53 Sunny 93 33.9 57 13.9 30 30 E 9 15 29.78 1009 10 16 N/A
4:53 pm 16:53 Sunny 92 33.3 59 15 33 33 ESE 14 22 29.77 1008 10 16 N/A
5:53 pm 17:53 Sunny 91 32.8 57 13.9 32 32 ESE 15 24 29.77 1008 10 16 N/A
6:53 pm 18:53 Clear 88 31.1 58 14.4 36 36 ESE 14 22 29.78 1008 10 16 N/A
7:53 pm 19:53 Clear 87 30.6 57 13.9 36 36 NE 6 9 29.80 1009 10 16 N/A
8:53 pm 20:53 Clear 86 30 56 13.3 36 36 ENE 6 9 29.83 1010 10 16 N/A
9:53 pm 21:53 Clear 83 28.3 57 13.9 41 41 SSW 3 6 29.85 1011 10 16 N/A
10:53 pm 22:53 Clear 83 28.3 58 14.4 43 43 N N/A 29.86 1011 10 16 N/A
11:53 pm 23:53 Clear 80 26.7 57 13.9 45 45 E 5 7 29.86 1011 10 16 N/A

Powered by AerisWeather